Farmington, NM

8:02 PM MST on December 07, 2019 (GMT -0700)
Four Corners Regional

Weather History for KFMN - October, 2019

Change the Weather History Date:

Sunday, October 20, 2019

  Actual Average Record
Temperature  
Mean Temperature 45 °F -  
Max Temperature 54 °F 63 °F 78 °F (2007)
Min Temperature 37 °F 34 °F 27 °F (1999)
Degree Days  
Heating Degree Days 20    
Moisture  
Dew Point 6 °F    
Average Humidity 21    
Maximum Humidity 45    
Minimum Humidity 11    
Precipitation  
Precipitation 0.00 in - - ()
Sea Level Pressure  
Sea Level Pressure 29.90 in    
Wind  
Wind Speed 11 mph ()    
Max Wind Speed 26 mph    
Max Gust Speed 40 mph    
Visibility 9.8 miles    
Events      
Averages and records for this station are not official NWS values.
T = Trace of Precipitation, MM = Missing Value Source: Averaged Metar Reports

Daily Weather History Graph

Daily Weather History Graph

Search for Another Location

Airport or City:

Astronomy

Oct. 20, 2019 Rise Set
Actual Time 7:24 AM MDT 6:30 PM MDT
Civil Twilight 6:58 AM MDT 6:56 PM MDT
Nautical Twilight 6:28 AM MDT 7:26 PM MDT
Astronomical Twilight 5:58 AM MDT 7:56 PM MDT
Moon 11:48 PM MDT (10/20) 1:49 PM MDT (10/20)
Length of Visible Light 11h 57m
Length of Day
11h 05m
Waning Gibbous, 58% of the Moon is Illuminated
Oct 20
Waning Gibbous
Oct 21
Last Quarter
Oct 27
New
Nov 4
First Quarter
Nov 12
Full

Hourly Weather History & Observations

Time (MDT) Temp. Windchill Dew Point Humidity Pressure Visibility Wind Dir Wind Speed Gust Speed Precip Events Conditions
12:53 AM 41.0 °F 39.0 °F 7.0 °F 25% 29.76 in 10.0 mi NNE 3.5 mph - N/A   Clear
1:53 AM 46.9 °F - 8.1 °F 21% 29.71 in 10.0 mi West 8.1 mph - N/A   Clear
2:53 AM 52.0 °F - 8.1 °F 17% 29.69 in 10.0 mi West 12.7 mph - N/A   Clear
3:53 AM 51.1 °F - 6.1 °F 16% 29.68 in 10.0 mi West 10.4 mph - N/A   Clear
4:53 AM 44.1 °F 40.1 °F 5.0 °F 20% 29.71 in 10.0 mi West 6.9 mph - N/A   Clear
5:53 AM 46.0 °F 40.6 °F 23.0 °F 40% 29.75 in 10.0 mi NW 11.5 mph - N/A   Clear
6:37 AM 44.1 °F 36.2 °F 24.1 °F 45% 29.88 in 4.0 mi NW 18.4 mph 28.8 mph N/A   Haze
6:53 AM 43.0 °F 36.0 °F 23.0 °F 45% 29.82 in 10.0 mi NW 13.8 mph 23.0 mph N/A   Clear
7:53 AM 43.0 °F 37.7 °F 19.9 °F 40% 29.88 in 10.0 mi NW 9.2 mph - N/A   Clear
8:53 AM 46.0 °F 38.0 °F 12.0 °F 25% 29.91 in 10.0 mi WNW 21.9 mph 28.8 mph N/A   Clear
9:53 AM 46.9 °F - 10.0 °F 22% 29.94 in 10.0 mi WNW 21.9 mph 27.6 mph N/A   Clear
10:53 AM 50.0 °F - 5.0 °F 16% 29.94 in 10.0 mi NW 25.3 mph 35.7 mph N/A   Clear
11:53 AM 50.0 °F - -4.0 °F 11% 29.96 in 10.0 mi NW 26.5 mph 40.3 mph N/A   Clear
12:53 PM 50.0 °F - 3.0 °F 15% 29.97 in 10.0 mi NW 20.7 mph 38.0 mph N/A   Clear
1:53 PM 52.0 °F - 1.9 °F 13% 29.94 in 10.0 mi WNW 19.6 mph 32.2 mph N/A   Clear
2:53 PM 52.0 °F - 1.9 °F 13% 29.92 in 10.0 mi WNW 17.3 mph 32.2 mph N/A   Clear
3:53 PM 53.1 °F - 1.0 °F 12% 29.92 in 10.0 mi West 20.7 mph 26.5 mph N/A   Clear
4:53 PM 53.1 °F - -0.0 °F 11% 29.95 in 10.0 mi West 21.9 mph 26.5 mph N/A   Clear
5:53 PM 50.0 °F - 1.0 °F 13% 29.97 in 10.0 mi West 19.6 mph 27.6 mph N/A   Clear
6:53 PM 46.9 °F - 1.9 °F 16% 29.99 in 10.0 mi West 10.4 mph - N/A   Clear
7:53 PM 44.1 °F 38.6 °F 1.0 °F 17% 30.02 in 10.0 mi NNW 10.4 mph - N/A   Clear
8:53 PM 43.0 °F 38.2 °F -0.0 °F 17% 30.03 in 10.0 mi WNW 8.1 mph - N/A   Clear
9:53 PM 39.9 °F - 1.0 °F 20% 30.05 in 10.0 mi Calm Calm - N/A   Clear
10:53 PM 37.9 °F 33.5 °F 1.0 °F 21% 30.06 in 10.0 mi West 5.8 mph - N/A   Clear
11:53 PM 37.9 °F 35.5 °F 1.0 °F 21% 30.06 in 10.0 mi West 3.5 mph - N/A   Clear